ベルナルディ彗星

268P/Bernardi (2005)

English version
Home page
Updated on February 10, 2013

---------------------------------------------------------------------

・ プロフィール

符号 268P/2005 V1
発見日 2005年11月1日
発見光度 20.5等
発見者 Fabrizio Bernardi (University of Hawaii Asteroid Search project)

・ 軌道要素

Epoch 2005 Aug. 18.0 TT = JDT 2453600.5
T 2005 Aug. 12.56583 TT                                 MPC
q   2.3450727            (2000.0)            P               Q
n   0.10333837     Peri.  357.31559     -0.60390564     -0.76968727
a   4.4974013      Node   129.73897     +0.73620964     -0.63820812
e   0.4785716      Incl.   15.62195     +0.30543959     +0.01648930
P   9.54
From 49 observations 2005 Nov. 1-2012 Aug. 16, mean residual 0".20.

・ 光度変化

        m1 = 15.0 + 5 logΔ + 7.5 log r

---------------------------------------------------------------------

軌道要素はM.P.E.C. 2012-R30に掲載されたものです。
光度グラフはComet for Windowsで作成したものです。

---------------------------------------------------------------------

Copyright(C) Seiichi Yoshida (comet@aerith.net). All rights reserved.